Regional Weather Roundup
Issued by NWS

Home | Current Version | Previous Version | Text Only | Print | Product List | Glossary Off
Versions: 1 2 3 4 5 6 7 8 9 10 11 12 13 14 15 16 17 18 19 20 21 22 23 24 25 26 27 28 29 30 31 32 33 34 35 36 37 38 39 40 41 42 43 44 45 46 47 48 49 50

000
ASUS43 KLOT 261206
RWRIL

ILLINOIS REGIONAL WEATHER ROUNDUP
NATIONAL WEATHER SERVICE CHICAGO/ROMEOVILLE IL
600 AM CST WED NOV 26 2014

NOTE: "FAIR" INDICATES FEW OR NO CLOUDS BELOW 12,000 FEET WITH NO
SIGNIFICANT WEATHER AND/OR OBSTRUCTIONS TO VISIBILITY.

* THESE STATIONS ARE NOT UNDER NWS QUALITY CONTROL. THEY ALSO MAY NOT
  REPORT WEATHER SUCH AS PRECIPITATION OR FOG.

ILZ001-002-007-009-015-016-024-261300-
NORTHWEST ILLINOIS

CITY           SKY/WX    TMP DP  RH WIND       PRES   REMARKS
MOLINE         MOCLDY    18  14  84 E8        30.07F WCI   8
6HR MIN TEMP:  11; 6HR MAX TEMP:  18;

STERLING*      MOCLDY    16  12  86 E7        30.11R WCI   6
SAVANNA*       MOCLDY    17  15  90 E7        30.11R WCI   8
$$

ILZ003-004-008-010-011-017-018-261300-
NORTH CENTRAL ILLINOIS

CITY           SKY/WX    TMP DP  RH WIND       PRES   REMARKS
ROCKFORD       PTCLDY    16  12  84 SE8       30.15S FOG     WCI   5
6HR MIN TEMP:  10; 6HR MAX TEMP:  16;

FREEPORT*      MOCLDY     9   6  89 CALM      30.13R FOG
ROCHELLE*      PTCLDY    15  13  93 E8        30.12F FOG     WCI   3
DE KALB*       CLOUDY    16  14  92 E7        30.13S FOG     WCI   7
PERU*          PTCLDY    18  16  93 E6        30.13S FOG     WCI  10
$$

ILZ005-006-012>014-019>023-261300-
NORTHEAST ILLINOIS

CITY           SKY/WX    TMP DP  RH WIND       PRES   REMARKS
CHICAGO-OHARE  MOCLDY    19  16  88 CALM      30.15R
6HR MIN TEMP:  17; 6HR MAX TEMP:  21;

CHICAGO-MIDWAY CLOUDY    23  18  81 SW5       30.16R WCI  17
6HR MIN TEMP:  22; 6HR MAX TEMP:  24;

AURORA         CLOUDY    20  15  81 E7        30.15S HAZE    WCI  11
6HR MIN TEMP:  10; 6HR MAX TEMP:  20;

LANSING*       CLOUDY    23  19  83 SE3       30.16R
JOLIET*        CLOUDY    22  19  89 CALM      30.16S FOG
WAUKEGAN       CLOUDY    16  13  88 NW7       30.16R FOG     WCI   6
6HR MIN TEMP:   9; 6HR MAX TEMP:  16;

DUPAGE AIRPORT CLOUDY    19  17  92 SE5       30.14S WCI  12
6HR MIN TEMP:   9; 6HR MAX TEMP:  19;

KANKAKEE*      CLOUDY   N/A N/A N/A E7        30.16R
WHEELING       PTCLDY    18  14  84 CALM      30.17R
6HR MIN TEMP:  17; 6HR MAX TEMP:  21;

MORRIS*        CLOUDY    18  17  95 CALM      30.14F FOG
ROMEOVILLE*    CLOUDY    21  20  96 E5        30.14F WCI  15
NORTHERLY ISL    N/A     26  20  77 SE8         N/A  WCI  18
$$

LMZ740>746-261300-
SOUTHERN LAKE MICHIGAN

STATION/POSITION SKY/WX   TEMP    WIND        PRES    VSBY  WAVE
                          AIR SEA DIR/SP/G                  HT/PER
                          (F)     (DEG/KT/KT) (MB)    (MI)  (FT/S)
SOUTHERN BUOY              29 42   CALM  /  2 1021.7F         1/ 3
WAUKEGAN HARBOR            19     280/  8/  9   N/A
HARRISON CRIB              26     160/  8/ 11   N/A
BURNHAM HARBOR             26      CALM  / 10   N/A
CALUMET HARBOR             24     160/  3/  4 1019.7S
MICHIGAN CITY              23      90/  9/ 11   N/A
$$

ILZ025>027-034>036-040-047-049-050-058-095>099-261300-
WEST-CENTRAL ILLINOIS

CITY           SKY/WX    TMP DP  RH WIND       PRES   REMARKS
QUINCY         MOCLDY    26  22  84 SE9       30.02F WCI  17
GALESBURG*     MOCLDY    23  22  96 E6        30.06F WCI  16
MACOMB*        CLOUDY    26  25  96 SE7       30.08S WCI  19
JACKSONVILLE*  CLOUDY    30  27  87 SE8       30.08S WCI  23
PITTSFIELD*    CLOUDY    29  26  90 SE8       30.06S WCI  21
$$

ILZ028>032-037-038-041>044-048-051>054-059>061-261300-
CENTRAL ILLINOIS

CITY           SKY/WX    TMP DP  RH WIND       PRES   REMARKS
PONTIAC        FAIR      22  20  93 SE7       30.14F WCI  13
BLOOMINGTON    MOCLDY    22  20  92 SE9       30.12S WCI  12
DECATUR        PTCLDY    23  21  92 SE6       30.12S WCI  16
PEORIA         MOCLDY    25  20  81 E5        30.10S WCI  19
6HR MIN TEMP:  22; 6HR MAX TEMP:  25;

LACON*         MOCLDY    19  16  88 E3        30.12R
LINCOLN*       MOCLDY    24  22  91 SE3       30.13R
SPRINGFIELD    MOCLDY    27  24  89 SE6       30.10S WCI  20
6HR MIN TEMP:  22; 6HR MAX TEMP:  27;

TAYLORVILLE    MOCLDY    27  23  86 SE9       30.10F WCI  17
$$

ILZ033-039-045-046-055>057-062-063-261300-
EAST-CENTRAL ILLINOIS

CITY           SKY/WX    TMP DP  RH WIND       PRES   REMARKS
CHAMPAIGN      CLEAR     19  16  88 E7        30.14R WCI  10
DANVILLE*      PTCLDY    21  19  93 CALM      30.12R
RANTOUL*       CLEAR     21  19  91 E3        30.14R
MATTOON        CLEAR     22  19  89 SE5       30.12R WCI  16
PARIS*         CLEAR     23  22  96 CALM      30.15R
$$

ILZ079-100>102-261300-
SOUTHWEST ILLINOIS

CITY           SKY/WX    TMP DP  RH WIND       PRES   REMARKS
BELLEVILLE     MOCLDY    25  25  99 E5        30.10F WCI  19
CAHOKIA*       PTCLDY    28  25  88 SE8       30.09F WCI  20
SPARTA*        MOCLDY    26  24  93 SE7       30.12R WCI  18
$$

ILZ064>066-069>071-074>076-080>082-084>086-088>090-092>094-261300-
SOUTH-CENTRAL ILLINOIS

CITY           SKY/WX    TMP DP  RH WIND       PRES   REMARKS
CARBONDALE     PTCLDY    21  17  84 CALM      30.12S
6HR MIN TEMP:  20; 6HR MAX TEMP:  24;

CAIRO*         PTCLDY    28  25  89 CALM      30.14S
EFFINGHAM*     PTCLDY    25  22  87 SE6       30.13S WCI  18
MARION         PTCLDY    27  25  93 CALM      30.13S
MT. VERNON     PTCLDY    27  21  80 E3        30.14R
CENTRALIA*     MOCLDY    26  23  89 E3        30.12S
SALEM*           N/A     27  24  87 SE6       30.13R WCI  21
METROPOLIS*    PTCLDY    25  25 100 CALM        N/A  FOG
$$

ILZ067-068-072-073-078-083-087-091-261300-
SOUTHEAST ILLINOIS

CITY           SKY/WX    TMP DP  RH WIND       PRES   REMARKS
LAWRENCEVILLE  CLEAR     24  22  91 NE3       30.16R FOG
FLORA*         CLEAR     23  22  98 CALM      30.15R
FAIRFIELD*     PTCLDY    24  22  94 CALM      30.14S
HARRISBURG*    CLEAR     26  26 100 CALM      30.16R
ROBINSON*      CLEAR     23  22  95 CALM      30.16S
CARMI*         CLEAR     22  22 100 CALM      30.15R FOG
$$

ABBREVIATIONS USED IN REMARKS
   TC - TEMPERATURE IN CELSIUS
  WCI - WIND CHILL INDEX
   HX - HEAT INDEX
  VSB - VISIBILITY
$$




USA.gov is the U.S. government's official web portal to all federal, state and local government web resources and services.